Location: Unspecified
(47.5840°N, 122.3000°W)
Time: 23:18:42
(UTC+00:00)

SL-4 R/B - Pass Details

Date: 09 December 2025
Orbit: 385 x 521 km, 51.6° (Epoch: 19 January)

Event Time Altitude Azimuth Distance (km) Brightness Sun altitude
Exits shadow 13:54:50 47° 339° (NNW) 539 1.7 -17.8°
Maximum altitude 13:55:20 53° 15° (NNE) 495 1.7 -17.7°
Drops below altitude 10° 13:58:27 10° 94° (E) 1,422 5.4 -17.2°
Sets 14:00:31 0° 99° (E) 2,268 6.9 -16.9°
